Latest Weather Observations for Parndana

IDS60801

Issued at 7:04 pm CDT Saturday 31 January 2015 (issued every 30 minutes, with the page automatically refreshed every 10 minutes)

About weather observations | Map of weather stations | Latest weather observations for SA | Other Formats
Station Details ID: 022843 Name: PARNDANA CFS AWS Lat: -35.79 Lon: 137.25 Height: 165.0 m
Data from the previous 72 hours. | See also: Recent months at Parndana
Date/Time
CDT
Temp
°C
App
Temp
°C
Dew
Point
Rel
Hum
%
Delta-T
°C
Wind Press
QNH
hPa
Press
MSL
hPa
Rain
since 9 am
mm
Dir
 
Spd
km/h
Gust
km/h
Spd
kts
Gust
kts
31/07:00pm 15.9 9.8 9.8 67 3.2 SSE 32 41 17 22 - - 0.0
31/06:30pm 16.8 11.5 9.7 63 3.7 SSE 28 43 15 23 - - 0.0
31/06:00pm 17.3 11.3 10.2 63 3.8 SSE 32 39 17 21 - - 0.0
31/05:30pm 17.7 11.8 10.6 63 3.8 SSE 32 41 17 22 - - 0.0
31/05:00pm 17.1 11.9 10.2 64 3.7 SSE 28 37 15 20 - - 0.0
31/04:30pm 17.6 12.5 9.2 58 4.4 SSE 26 33 14 18 - - 0.0
31/04:00pm 18.9 14.2 10.5 58 4.6 SSE 26 39 14 21 - - 0.0
31/03:30pm 17.8 11.9 10.4 62 4.0 SSE 32 39 17 21 - - 0.0
31/03:00pm 17.4 12.3 10.5 64 3.7 SSE 28 39 15 21 - - 0.0
31/02:30pm 18.6 13.9 9.4 55 4.9 SSE 24 35 13 19 - - 0.0
31/02:00pm 17.6 11.9 9.8 60 4.1 SSE 30 43 16 23 - - 0.0
31/01:30pm 18.1 12.5 10.0 59 4.3 SSE 30 39 16 21 - - 0.0
31/01:00pm 18.9 13.5 9.4 54 5.0 SSE 28 37 15 20 - - 0.0
31/12:30pm 20.5 14.8 8.2 45 6.5 SE 28 44 15 24 - - 0.0
31/12:00pm 18.5 12.8 8.2 51 5.3 SSE 28 39 15 21 - - 0.0
31/11:30am 18.3 13.0 8.6 53 5.1 SE 26 35 14 19 - - 0.0
31/11:00am 17.4 11.7 8.3 55 4.7 SSE 28 37 15 20 - - 0.0
31/10:30am 16.9 11.4 9.1 60 4.1 SE 28 37 15 20 - - 0.0
31/10:00am 17.4 11.7 9.8 61 4.0 SSE 30 39 16 21 - - 0.0
31/09:30am 16.5 13.1 11.4 72 2.8 SE 20 32 11 17 - - 0.0
31/09:00am 15.0 11.5 10.8 76 2.2 SSE 20 30 11 16 - - 0.0
31/08:30am 15.8 11.1 10.8 72 2.7 SSE 26 35 14 19 - - 0.0
31/08:00am 15.8 11.8 9.2 65 3.4 SE 20 28 11 15 - - 0.0
31/07:30am 15.2 11.2 9.1 67 3.2 SE 20 28 11 15 - - 0.0
31/07:00am 14.6 10.8 9.2 70 2.8 SE 19 26 10 14 - - 0.0
31/06:30am 14.7 11.7 10.5 76 2.2 SE 17 24 9 13 - - 0.0
31/06:00am 14.4 11.1 9.6 73 2.5 SE 17 22 9 12 - - 0.0
31/05:30am 14.4 10.6 9.8 74 2.4 SE 20 30 11 16 - - 0.0
31/05:00am 14.2 11.0 11.4 83 1.5 SE 19 24 10 13 - - 0.0
31/04:30am 14.1 11.1 10.5 79 1.9 SSE 17 20 9 11 - - 0.0
31/04:00am 13.5 9.7 9.9 79 1.9 SE 20 28 11 15 - - 0.0
31/03:30am 14.0 9.9 10.2 78 2.0 SE 22 32 12 17 - - 0.0
31/03:00am 13.8 9.7 10.0 78 2.0 SE 22 30 12 16 - - 0.0
31/02:30am 13.8 9.2 9.8 77 2.1 SE 24 32 13 17 - - 0.0
31/02:00am 13.4 9.5 9.6 78 2.0 SSE 20 28 11 15 - - 0.0
31/01:30am 13.4 9.1 9.3 76 2.1 SSE 22 30 12 16 - - 0.0
31/01:00am 13.8 9.0 9.0 73 2.5 SE 24 33 13 18 - - 0.0
31/12:30am 13.9 8.7 8.7 71 2.6 SSE 26 35 14 19 - - 0.0
31/12:00am 14.4 8.8 8.8 69 2.9 SSE 28 37 15 20 - - 0.0
 
Date/Time
CDT
Temp
°C
App
Temp
°C
Dew
Point
Rel
Hum
%
Delta-T
°C
Wind Press
QNH
hPa
Press
MSL
hPa
Rain
since 9 am
mm
Dir
 
Spd
km/h
Gust
km/h
Spd
kts
Gust
kts
30/11:30pm 14.4 9.2 8.8 69 2.9 SSE 26 37 14 20 - - 0.0
30/11:00pm 14.4 8.4 8.6 68 2.9 SSE 30 37 16 20 - - 0.0
30/10:30pm 14.5 9.7 8.7 68 3.0 SE 24 33 13 18 - - 0.0
30/10:00pm 14.8 9.6 8.7 67 3.1 SSE 26 37 14 20 - - 0.0
30/09:30pm 14.4 9.1 8.6 68 2.9 SSE 26 37 14 20 - - 0.0
30/09:00pm 15.2 8.9 9.1 67 3.2 SSE 32 43 17 23 - - 0.0
30/08:30pm 15.2 8.7 9.1 67 3.2 SSE 33 43 18 23 - - 0.0
30/08:00pm 15.6 8.7 8.8 64 3.5 SSE 35 44 19 24 - - 0.0
30/07:30pm 16.3 10.0 9.0 62 3.8 SSE 32 44 17 24 - - 0.0
30/07:00pm 17.1 10.7 9.3 60 4.1 SSE 33 46 18 25 - - 0.0
30/06:30pm 18.0 11.7 8.8 55 4.8 SSE 32 44 17 24 - - 0.0
30/06:00pm 18.7 12.8 8.9 53 5.2 SSE 30 43 16 23 - - 0.0
30/05:30pm 18.5 12.0 9.0 54 5.0 SSE 33 46 18 25 - - 0.0
30/05:00pm 19.5 13.9 10.0 54 5.1 SSE 30 43 16 23 - - 0.0
30/04:30pm 19.6 13.8 9.5 52 5.4 SSE 30 43 16 23 - - 0.0
30/04:00pm 21.0 15.2 9.6 48 6.2 SE 30 41 16 22 - - 0.0
30/03:30pm 20.1 13.9 7.8 45 6.4 SSE 30 41 16 22 - - 0.0
30/03:00pm 20.7 14.6 8.4 45 6.5 SE 30 46 16 25 - - 0.0
30/02:30pm 21.4 15.9 9.0 45 6.6 SE 28 43 15 23 - - 0.0
30/02:00pm 20.6 14.4 7.9 44 6.6 SE 30 44 16 24 - - 0.0
30/01:30pm 20.5 15.1 7.8 44 6.6 SE 26 37 14 20 - - 0.0
30/01:00pm 20.2 15.0 8.8 48 6.0 SE 26 43 14 23 - - 0.0
30/12:30pm 20.1 15.3 10.2 53 5.4 SE 26 35 14 19 - - 0.0
30/12:00pm 19.6 14.4 10.3 55 5.0 SE 28 37 15 20 - - 0.0
30/11:30am 19.2 14.5 10.5 57 4.7 ESE 26 33 14 18 - - 0.0
30/11:00am 18.6 13.5 10.7 60 4.3 SE 28 37 15 20 - - 0.0
30/10:30am 17.9 12.5 11.0 64 3.8 SE 30 35 16 19 - - 0.0
30/10:00am 17.3 12.4 11.3 68 3.3 SE 28 37 15 20 - - 0.0
30/09:30am 16.9 12.0 11.2 69 3.1 ESE 28 37 15 20 - - 0.0
30/09:00am 16.5 11.5 12.1 75 2.4 SE 30 39 16 21 - - 0.0
30/08:30am 15.5 11.1 11.7 78 2.1 SE 26 41 14 22 - - 0.0
30/08:00am 15.0 11.7 12.7 86 1.3 SE 22 32 12 17 - - 0.0
30/07:30am 14.4 11.4 12.4 88 1.1 SE 20 30 11 16 - - 0.0
30/07:00am 13.8 11.3 12.4 91 0.8 SE 17 24 9 13 - - 0.0
30/06:30am 13.4 10.8 12.0 91 0.8 SE 17 20 9 11 - - 0.0
30/06:00am 12.8 10.3 11.2 90 0.8 SE 15 19 8 10 - - 0.0
30/05:30am 13.3 10.9 11.5 89 1.0 SE 15 22 8 12 - - 0.0
30/05:00am 13.3 10.6 11.7 90 0.9 SE 17 22 9 12 - - 0.0
30/04:30am 12.6 10.2 11.3 92 0.7 SE 15 20 8 11 - - 0.0
30/04:00am 11.9 9.3 10.8 93 0.6 SSE 15 19 8 10 - - 0.0
30/03:30am 12.0 9.8 10.7 92 0.7 SSE 13 15 7 8 - - 0.0
30/03:00am 12.4 10.6 11.0 91 0.7 SSE 11 15 6 8 - - 0.0
30/02:30am 12.4 10.3 11.1 92 0.7 SSE 13 17 7 9 - - 0.0
30/02:00am 12.5 10.0 11.2 92 0.7 SSE 15 19 8 10 - - 0.0
30/01:30am 13.0 11.4 11.7 92 0.7 SSE 11 15 6 8 - - 0.0
30/01:00am 13.3 11.5 12.0 92 0.7 SSE 13 17 7 9 - - 0.0
30/12:30am 13.5 11.3 12.2 92 0.7 SSE 15 19 8 10 - - 0.0
30/12:00am 13.7 11.2 12.3 91 0.8 SSE 17 20 9 11 - - 0.0
 
Date/Time
CDT
Temp
°C
App
Temp
°C
Dew
Point
Rel
Hum
%
Delta-T
°C
Wind Press
QNH
hPa
Press
MSL
hPa
Rain
since 9 am
mm
Dir
 
Spd
km/h
Gust
km/h
Spd
kts
Gust
kts
29/11:30pm 13.7 11.1 12.1 90 0.9 SSE 17 22 9 12 - - 0.0
29/11:00pm 13.9 10.4 12.1 89 1.0 SSE 22 28 12 15 - - 0.0
29/10:30pm 13.8 11.1 11.7 87 1.1 SSE 17 20 9 11 - - 0.0
29/10:00pm 14.1 11.4 11.8 86 1.2 SSE 17 20 9 11 - - 0.0
29/09:30pm 14.6 11.6 11.9 84 1.5 SSE 19 24 10 13 - - 0.0
29/09:00pm 15.1 11.9 11.9 81 1.7 SSE 20 30 11 16 - - 0.0
29/08:30pm 16.0 11.6 11.8 76 2.3 SSE 26 33 14 18 - - 0.0
29/08:00pm 17.4 12.7 12.1 71 2.9 SSE 28 35 15 19 - - 0.0
29/07:30pm 18.9 15.5 12.4 66 3.7 SSE 22 32 12 17 - - 0.0
29/07:00pm 19.9 15.2 10.6 55 5.1 SSE 26 32 14 17 - - 0.0
29/06:30pm 20.7 15.8 9.9 50 5.9 SE 26 35 14 19 - - 0.0
29/06:00pm 21.2 16.0 8.8 45 6.6 SE 26 35 14 19 - - 0.0
29/05:30pm 21.4 16.2 9.0 45 6.6 SE 26 35 14 19 - - 0.0
29/05:00pm 22.3 16.6 8.4 41 7.4 SE 28 39 15 21 - - 0.0
29/04:30pm 23.3 18.4 8.6 39 7.9 SE 24 37 13 20 - - 0.0
29/04:00pm 23.6 18.4 7.3 35 8.6 ESE 24 39 13 21 - - 0.0
29/03:30pm 22.9 16.9 5.3 32 8.9 ESE 26 41 14 22 - - 0.0
29/03:00pm 23.7 18.1 5.6 31 9.2 ESE 24 33 13 18 - - 0.0
29/02:30pm 23.3 17.1 4.3 29 9.4 SE 26 39 14 21 - - 0.0
29/02:00pm 23.4 17.6 4.4 29 9.5 ESE 24 39 13 21 - - 0.0
29/01:30pm 22.8 17.4 7.8 38 7.9 ESE 26 35 14 19 - - 0.0
29/01:00pm 22.4 17.4 8.1 40 7.6 ESE 24 37 13 20 - - 0.0
29/12:30pm 22.4 17.6 7.4 38 7.8 E 22 35 12 19 - - 0.0
29/12:00pm 21.8 17.3 10.0 47 6.4 ESE 24 35 13 19 - - 0.0
29/11:30am 20.9 16.4 10.1 50 5.9 E 24 35 13 19 - - 0.0
29/11:00am 20.6 15.9 10.7 53 5.4 ESE 26 33 14 18 - - 0.0
29/10:30am 20.1 15.6 11.3 57 4.9 ESE 26 39 14 21 - - 0.0
29/10:00am 19.3 14.9 11.8 62 4.2 ESE 26 33 14 18 - - 0.0
29/09:30am 18.6 13.8 11.7 64 3.8 ESE 28 35 15 19 - - 0.0
29/09:00am 18.6 14.7 12.1 66 3.6 ESE 24 35 13 19 - - 0.0
29/08:30am 17.2 12.2 12.3 73 2.7 ESE 30 41 16 22 - - 0.0
29/08:00am 16.3 13.0 12.8 80 2.0 ESE 22 30 12 16 - - 0.0
29/07:30am 14.8 12.0 12.7 87 1.2 SE 19 26 10 14 - - 0.0
29/07:00am 14.0 11.1 12.2 89 1.0 SE 19 24 10 13 - - 0.0
29/06:30am 13.4 10.8 12.0 91 0.8 SE 17 20 9 11 - - 0.0
29/06:00am 13.1 10.6 12.2 94 0.5 SE 17 20 9 11 - - 0.0
29/05:30am 12.9 10.7 12.0 94 0.5 SSE 15 19 8 10 - - 0.0
29/05:00am 13.1 10.2 12.2 94 0.5 SSE 19 20 10 11 - - 0.0
29/04:30am 13.7 10.9 12.6 93 0.6 SSE 19 22 10 12 - - 0.0
29/04:00am 14.1 11.7 12.8 92 0.7 SE 17 24 9 13 - - 0.0
29/03:30am 14.2 11.3 12.8 91 0.8 SSE 20 24 11 13 - - 0.0
29/03:00am 14.8 12.1 13.0 89 1.0 SSE 19 24 10 13 - - 0.0
29/02:30am 15.4 12.7 13.4 88 1.1 SSE 20 28 11 15 - - 0.0
29/02:00am 15.8 13.3 13.6 87 1.2 SE 19 26 10 14 - - 0.0
29/01:30am 15.8 13.7 13.6 87 1.2 SE 17 24 9 13 - - 0.0
29/01:00am 15.8 11.2 13.5 86 1.3 SSE 30 41 16 22 - - 0.0
29/12:30am 16.1 12.6 13.4 84 1.5 SE 24 30 13 16 - - 0.0
29/12:00am 16.0 13.4 13.3 84 1.5 SE 19 26 10 14 - - 0.0
 
Date/Time
CDT
Temp
°C
App
Temp
°C
Dew
Point
Rel
Hum
%
Delta-T
°C
Wind Press
QNH
hPa
Press
MSL
hPa
Rain
since 9 am
mm
Dir
 
Spd
km/h
Gust
km/h
Spd
kts
Gust
kts
28/11:30pm 15.9 11.9 13.0 83 1.6 SE 26 37 14 20 - - 0.0
28/11:00pm 15.9 11.1 12.8 82 1.7 SE 30 41 16 22 - - 0.0
28/10:30pm 15.8 10.9 12.7 82 1.7 SE 30 39 16 21 - - 0.0
28/10:00pm 15.8 10.9 12.5 81 1.8 SSE 30 41 16 22 - - 0.0
28/09:30pm 15.8 10.5 12.4 80 1.9 SSE 32 41 17 22 - - 0.0
28/09:00pm 15.8 11.9 12.2 79 2.0 SE 24 33 13 18 - - 0.0
28/08:30pm 15.9 11.2 11.9 77 2.2 SE 28 39 15 21 - - 0.0
28/08:00pm 16.2 11.0 11.6 74 2.5 SSE 30 41 16 22 - - 0.0
28/07:30pm 15.9 10.2 11.1 73 2.6 SE 32 43 17 23 - - 0.0

Other Formats:

Comma delimited format used in spreadsheet applications
http://www.bom.gov.au/fwo/IDS60801/IDS60801.94807.axf

JavaScript Object Notation format (JSON) in row-major order
http://www.bom.gov.au/fwo/IDS60801/IDS60801.94807.json